IU1DOF-3 Weather Reports


Display with metric or nautical units.
time (UTC)temp
F
wind
direction
speed
MPH
gust
MPH
rain 1hr
in
rain 24hr
in
rain mn
in
humidity
%
barometer
mb
20260901200951 63 306 1.0 1.0 0.00 0.00 0.00 79 1018.9
20260901195941 63 305 2.0 2.0 0.00 0.00 0.00 78 1018.6
20260901194920 63 305 3.0 3.0 0.00 0.00 0.00 78 1018.5
20260901193856 63 305 1.0 2.0 0.00 0.00 0.00 78 1018.5
20260901192841 64 305 2.0 2.0 0.00 0.00 0.00 77 1018.4
20260901191825 64 305 1.0 2.0 0.00 0.00 0.00 77 1018.2
20260901190801 64 305 2.0 2.0 0.00 0.00 0.00 76 1018.3
20260901185741 64 303 1.0 2.0 0.00 0.00 0.00 76 1017.9
20260901184728 65 305 2.0 3.0 0.00 0.00 0.00 74 1017.8
20260901183704 65 305 2.0 2.0 0.00 0.00 0.00 76 1017.7
20260901182640 65 309 1.0 2.0 0.00 0.00 0.00 76 1017.3
20260901181616 66 292 2.0 2.0 0.00 0.00 0.00 76 1017.6
20260901180553 67 287 1.0 2.0 0.00 0.00 0.00 77 1017.3
20260901175540 66 292 1.0 1.0 0.00 0.00 0.00 78 1017.3
20260901174519 68 298 3.0 3.0 0.00 0.00 0.00 73 1017.2
20260901173458 69 305 3.0 3.0 0.00 0.00 0.00 75 1017.0
20260901172440 69 306 3.0 4.0 0.00 0.00 0.00 72 1017.0
20260901171424 70 308 3.0 3.0 0.00 0.00 0.00 71 1016.8
20260901170402 70 308 2.0 3.0 0.00 0.00 0.00 71 1016.9
20260901165340 71 295 2.0 3.0 0.00 0.00 0.00 72 1016.8
20260901164328 72 307 2.0 3.0 0.00 0.00 0.00 73 1016.7
20260901163303 72 309 2.0 3.0 0.00 0.00 0.00 67 1016.9
20260901162241 73 309 3.0 3.0 0.00 0.00 0.00 68 1016.7
20260901161217 74 309 2.0 2.0 0.00 0.00 0.00 68 1016.7
20260901160153 76 308 2.0 2.0 0.00 0.00 0.00 60 1016.7
20260901155141 78 259 1.0 3.0 0.00 0.00 0.00 52 1016.5
20260901154120 79 273 0.0 1.0 0.00 0.00 0.00 50 1016.6
20260901153057 79 277 0.0 0.0 0.00 0.00 0.00 56 1016.9
20260901152034 80 276 0.0 0.0 0.00 0.00 0.00 53 1016.5
20260901151024 80 299 0.0 2.0 0.00 0.00 0.00 51 1016.7
20260901150000 80 308 0.0 1.0 0.00 0.00 0.00 49 1016.9
20260901144952 80 290 0.0 0.0 0.00 0.00 0.00 50 1016.7
20260901143940 80 271 0.0 1.0 0.00 0.00 0.00 50 1016.7
20260901142921 80 286 1.0 2.0 0.00 0.00 0.00 49 1017.1
20260901141912 81 307 0.0 0.0 0.00 0.00 0.00 52 1017.0
20260901140903 80 293 1.0 2.0 0.00 0.00 0.00 48 1017.1
20260901135842 81 250 1.0 2.0 0.00 0.00 0.00 50 1017.0
20260901134832 81 292 1.0 2.0 0.00 0.00 0.00 48 1016.9
20260901133824 80 295 0.0 1.0 0.00 0.00 0.00 54 1017.1
20260901132816 80 272 1.0 2.0 0.00 0.00 0.00 50 1017.1
20260901131808 80 258 1.0 3.0 0.00 0.00 0.00 50 1017.1
20260901130800 80 280 2.0 3.0 0.00 0.00 0.00 51 1017.5
20260901125752 80 284 0.0 0.0 0.00 0.00 0.00 57 1017.1
20260901124741 80 275 0.0 2.0 0.00 0.00 0.00 50 1017.0
20260901123721 80 281 2.0 3.0 0.00 0.00 0.00 51 1017.4
20260901122657 81 281 0.0 1.0 0.00 0.00 0.00 48 1017.4
20260901121640 81 259 0.0 1.0 0.00 0.00 0.00 49 1017.3
20260901120625 79 259 3.0 6.0 0.00 0.00 0.00 50 1017.3
20260901115600 80 252 0.0 2.0 0.00 0.00 0.00 51 1017.4
20260901114540 81 265 0.0 1.0 0.00 0.00 0.00 53 1017.4
20260901113528 79 264 1.0 2.0 0.00 0.00 0.00 50 1017.5
20260901112520 80 281 0.0 1.0 0.00 0.00 0.00 49 1017.5
20260901111457 79 261 0.0 1.0 0.00 0.00 0.00 47 1017.5
20260901110433 79 276 1.0 3.0 0.00 0.00 0.00 50 1017.5
20260901105424 79 265 0.0 1.0 0.00 0.00 0.00 49 1017.5
20260901104400 79 258 0.0 3.0 0.00 0.00 0.00 49 1017.6
20260901103341 79 159 4.0 6.0 0.00 0.00 0.00 45 1017.7
20260901102330 77 257 1.0 2.0 0.00 0.00 0.00 50 1017.8
20260901101304 77 268 1.0 2.0 0.00 0.00 0.00 49 1017.8
20260901100242 76 268 1.0 2.0 0.00 0.00 0.00 45 1017.9
20260901095217 78 258 0.0 1.0 0.00 0.00 0.00 47 1018.1
20260901094154 78 298 0.0 0.0 0.00 0.00 0.00 51 1017.7
20260901093141 76 254 0.0 1.0 0.00 0.00 0.00 47 1018.1
20260901092121 76 284 0.0 0.0 0.00 0.00 0.00 48 1017.8
20260901091057 75 248 1.0 2.0 0.00 0.00 0.00 41 1018.2
20260901090041 73 276 1.0 2.0 0.00 0.00 0.00 43 1018.1
20260901085025 75 278 0.0 0.0 0.00 0.00 0.00 48 1018.1
20260901084000 72 279 0.0 0.0 0.00 0.00 0.00 49 1018.1
20260901082941 71 232 1.0 2.0 0.00 0.00 0.00 53 1018.0
20260901081929 73 280 0.0 0.0 0.00 0.00 0.00 47 1018.2
20260901080906 70 289 0.0 0.0 0.00 0.00 0.00 48 1017.9
20260901075841 71 306 0.0 0.0 0.00 0.00 0.00 49 1018.0
20260901074817 69 295 0.0 0.0 0.00 0.00 0.00 51 1017.7
20260901073753 70 289 0.0 0.0 0.00 0.00 0.00 51 1017.9
20260901072740 68 282 0.0 0.0 0.00 0.00 0.00 54 1017.7
20260901071720 68 287 0.0 0.0 0.00 0.00 0.00 62 1017.8
20260901070656 67 284 0.0 0.0 0.00 0.00 0.00 61 1017.8
20260901065641 67 282 0.0 0.0 0.00 0.00 0.00 54 1017.8
20260901064626 63 287 0.0 0.0 0.00 0.00 0.00 61 1018.0
20260901063601 62 282 0.0 0.0 0.00 0.00 0.00 68 1018.0
20260901062540 61 285 0.0 0.0 0.00 0.00 0.00 62 1017.9
20260901061530 59 289 0.0 0.0 0.00 0.00 0.00 68 1017.6
20260901060505 59 289 0.0 0.0 0.00 0.00 0.00 71 1017.5
20260901055443 57 290 0.0 0.0 0.00 0.00 0.00 72 1017.6
20260901054416 55 296 0.0 0.0 0.00 0.00 0.00 74 1017.7
20260901053352 55 297 0.0 0.0 0.00 0.00 0.00 74 1017.5
20260901052340 56 300 1.0 1.0 0.00 0.00 0.00 70 1017.3
20260901051322 55 297 2.0 3.0 0.00 0.00 0.00 69 1017.3
20260901050256 56 300 1.0 1.0 0.00 0.00 0.00 63 1017.1
20260901045240 55 299 1.0 1.0 0.00 0.00 0.00 65 1017.2
20260901044225 56 298 2.0 2.0 0.00 0.00 0.00 62 1017.0
20260901043200 55 297 0.0 0.0 0.00 0.00 0.00 67 1017.3
20260901042140 56 302 0.0 0.0 0.00 0.00 0.00 67 1017.1
20260901041130 55 304 0.0 0.0 0.00 0.00 0.00 69 1017.1
20260901040105 56 299 0.0 0.0 0.00 0.00 0.00 66 1017.0
20260901035041 57 297 0.0 1.0 0.00 0.00 0.00 62 1016.9
20260901034018 56 297 1.0 2.0 0.00 0.00 0.00 63 1016.8
20260901032953 56 299 0.0 0.0 0.00 0.00 0.00 66 1016.8
20260901031941 56 294 0.0 0.0 0.00 0.00 0.00 69 1016.8
20260901030920 57 302 2.0 2.0 0.00 0.00 0.00 63 1016.5
20260901025857 56 296 0.0 0.0 0.00 0.00 0.00 67 1016.4
20260901024841 57 296 1.0 2.0 0.00 0.00 0.00 67 1016.6
20260901023825 56 300 0.0 0.0 0.00 0.00 0.00 72 1016.5
20260901022817 58 296 2.0 3.0 0.00 0.00 0.00 67 1016.6
20260901021808 57 300 0.0 0.0 0.00 0.00 0.00 68 1016.2
20260901020746 57 291 1.0 2.0 0.00 0.00 0.00 70 1016.2
20260901015736 58 297 2.0 2.0 0.00 0.00 0.00 67 1016.5
20260901014728 58 296 3.0 3.0 0.00 0.00 0.00 63 1016.3
20260901013706 58 296 2.0 3.0 0.00 0.00 0.00 67 1016.5
20260901012656 58 302 2.0 3.0 0.00 0.00 0.00 62 1016.2
20260901011634 58 295 3.0 3.0 0.00 0.00 0.00 66 1016.4
20260901010609 59 300 1.0 2.0 0.00 0.00 0.00 67 1016.3
20260901005601 59 296 2.0 2.0 0.00 0.00 0.00 65 1016.4
20260901004540 59 298 1.0 2.0 0.00 0.00 0.00 67 1016.7
20260901003529 59 296 1.0 1.0 0.00 0.00 0.00 64 1016.5
20260901002505 59 307 1.0 2.0 0.00 0.00 0.00 67 1016.4
20260901001457 60 304 2.0 2.0 0.00 0.00 0.00 66 1016.5
20260901000440 59 298 0.0 0.0 0.00 0.00 0.00 67 1016.6
20260831235425 61 296 2.0 3.0 0.00 0.00 0.00 68 1016.7
20260831234416 60 299 4.0 4.0 0.00 0.00 0.00 66 1016.5
20260831233410 61 293 0.0 0.0 0.00 0.00 0.00 68 1016.6
20260831232401 61 297 2.0 3.0 0.00 0.00 0.00 67 1016.6
20260831231340 61 297 3.0 3.0 0.00 0.00 0.00 67 1016.9
20260831230329 62 309 1.0 1.0 0.00 0.00 0.00 66 1016.6
20260831225320 62 296 2.0 3.0 0.00 0.00 0.00 65 1016.7
20260831224257 62 299 3.0 3.0 0.00 0.00 0.00 67 1016.5
20260831223241 63 303 1.0 2.0 0.00 0.00 0.00 65 1016.4
20260831222225 63 307 3.0 3.0 0.00 0.00 0.00 65 1016.7
20260831221201 63 297 2.0 3.0 0.00 0.00 0.00 68 1016.7
20260831220153 63 297 3.0 3.0 0.00 0.00 0.00 65 1016.4
20260831215140 63 297 3.0 3.0 0.00 0.00 0.00 66 1016.3
20260831214122 63 303 3.0 3.0 0.00 0.00 0.00 68 1016.1
20260831213057 63 289 2.0 2.0 0.00 0.00 0.00 68 1016.0
20260831212033 64 304 3.0 3.0 0.00 0.00 0.00 66 1016.2
20260831211009 65 297 3.0 3.0 0.00 0.00 0.00 64 1016.1
20260831210000 68 277 2.0 2.0 0.00 0.00 0.00 58 1016.1
20260831204941 67 293 3.0 4.0 0.00 0.00 0.00 60 1015.6
20260831203930 67 301 2.0 3.0 0.00 0.00 0.00 61 1015.8
20260831202905 67 295 2.0 2.0 0.00 0.00 0.00 64 1015.3
20260831201842 68 314 2.0 2.0 0.00 0.00 0.00 59 1015.5